This demonstration page uses our WeatherBlox Daily Observations layout. Learn more.

Left ArrowRight Arrow

40.92945, -100.16068

Hourly Observations for November 28, 2015

Temp ( °F °C ) Dew Point ( °F °C ) Humidity (%) Winds ( mph kmh ) Pressure ( in mb ) Visibility ( mi km ) Precip ( " mm )
12:15 am 00:15 Cloudy 25 -3.7 17 -8.6 69 69 NNE 5 7 30.56 1035 10 16 N/A
12:35 am 00:35 Cloudy 25 -3.7 17 -8.6 69 69 NE 5 7 30.56 1035 10 16 N/A
12:55 am 00:55 Cloudy 26 -3.6 17 -8.5 69 69 NNE 5 7 30.56 1035 10 16 N/A
1:15 am 01:15 Cloudy 25 -3.7 16 -8.7 69 69 NNE 5 7 30.56 1035 10 16 N/A
1:35 am 01:35 Cloudy 26 -3.6 16 -8.7 68 68 NNE 3 6 30.56 1035 10 16 N/A
1:55 am 01:55 Cloudy 25 -3.7 16 -8.8 68 68 N N/A 30.56 1035 10 16 N/A
2:15 am 02:15 Cloudy 25 -3.7 16 -8.9 68 68 NNE 3 6 30.56 1035 10 16 N/A
2:35 am 02:35 Cloudy 26 -3.6 17 -8.6 69 69 N N/A 30.56 1035 10 16 N/A
2:55 am 02:55 Cloudy 25 -3.7 17 -8.5 70 70 NNE 3 6 30.53 1034 10 16 N/A
3:15 am 03:15 Cloudy 26 -3.6 17 -8.4 70 70 NE 3 6 30.53 1034 10 16 N/A
3:35 am 03:35 Cloudy 26 -3.6 17 -8.5 69 69 NE 6 9 30.53 1034 10 16 N/A
3:55 am 03:55 Cloudy 25 -3.7 17 -8.6 69 69 ENE 5 7 30.53 1034 10 16 N/A
4:15 am 04:15 Cloudy 25 -3.7 17 -8.5 70 70 N 3 6 30.53 1034 10 16 N/A
4:35 am 04:35 Cloudy 26 -3.6 17 -8.1 71 71 NE 6 9 30.53 1034 10 16 N/A
4:55 am 04:55 Cloudy 25 -3.7 17 -8.6 69 69 NE 6 9 30.53 1034 10 16 N/A
5:15 am 05:15 Cloudy 25 -3.7 17 -8.3 71 71 NE 7 11 30.53 1034 10 16 N/A
5:35 am 05:35 Cloudy 25 -3.7 17 -8.2 71 71 ENE 7 11 30.53 1034 10 16 N/A
5:55 am 05:55 Cloudy 26 -3.6 17 -8.1 71 71 NE 6 9 30.53 1034 10 16 N/A
6:15 am 06:15 Cloudy 26 -3.6 17 -8.3 70 70 NNE 3 6 30.53 1034 10 16 N/A
6:35 am 06:35 Cloudy 26 -3.6 17 -8.2 71 71 NE 5 7 30.53 1034 10 16 N/A
6:55 am 06:55 Cloudy 26 -3.5 17 -8.1 71 71 NE 6 9 30.53 1034 10 16 N/A
7:15 am 07:15 Cloudy 26 -3.6 17 -8.5 69 69 ENE 5 7 30.53 1034 10 16 N/A
7:35 am 07:35 Cloudy 26 -3.6 17 -8.3 70 70 NE 6 9 30.53 1034 10 16 N/A
7:55 am 07:55 Cloudy 26 -3.5 17 -8.2 70 70 NNE 6 9 30.53 1034 10 16 N/A
8:15 am 08:15 Cloudy 26 -3.5 17 -8.5 69 69 NE 3 6 30.53 1034 10 16 N/A
8:35 am 08:35 Cloudy 26 -3.3 17 -8.2 69 69 NNE 5 7 30.53 1034 10 16 N/A
8:55 am 08:55 Cloudy 26 -3.3 17 -8.5 68 68 NNE 5 7 30.53 1034 10 16 N/A
9:15 am 09:15 Cloudy 26 -3.1 17 -8.5 67 67 NNE 6 9 30.53 1034 10 16 N/A
9:35 am 09:35 Cloudy 27 -2.9 16 -8.8 64 64 NNE 6 9 30.53 1034 10 16 N/A
9:55 am 09:55 Cloudy 27 -2.7 16 -9.1 62 62 E 6 9 30.53 1034 10 16 N/A
10:15 am 10:15 Cloudy 27 -2.6 16 -9 62 62 E 5 7 30.53 1034 10 16 N/A
10:35 am 10:35 Cloudy 28 -2.5 16 -9 61 61 N N/A 30.53 1034 10 16 N/A
10:55 am 10:55 Cloudy 28 -2.5 16 -8.8 62 62 N N/A 30.53 1034 10 16 N/A
11:15 am 11:15 Cloudy 28 -2.2 17 -8.6 62 62 N N/A 30.53 1034 10 16 N/A
11:35 am 11:35 Cloudy 28 -2.1 17 -8.6 61 61 N N/A 30.53 1034 7 11 N/A
11:55 am 11:55 Cloudy 29 -1.8 17 -8.6 60 60 E 3 6 30.53 1034 10 16 N/A
12:15 pm 12:15 Cloudy 29 -1.9 16 -8.7 60 60 N N/A 30.53 1034 10 16 N/A
12:35 pm 12:35 Cloudy 29 -1.8 15 -9.3 57 57 E 5 7 30.48 1032 10 16 N/A
12:55 pm 12:55 Cloudy 29 -1.4 15 -9.3 55 55 E 6 9 30.48 1032 10 16 N/A
1:15 pm 13:15 Cloudy 29 -1.5 15 -9.4 55 55 ENE 3 6 30.48 1032 10 16 N/A
1:35 pm 13:35 Cloudy 30 -1.2 14 -9.8 52 52 NE 6 9 30.45 1031 10 16 N/A
1:55 pm 13:55 Cloudy 30 -1.1 14 -9.8 52 52 N N/A 30.45 1031 10 16 N/A
2:15 pm 14:15 Cloudy 30 -1 15 -9.6 52 52 E 3 6 30.45 1031 10 16 N/A
2:35 pm 14:35 Cloudy 30 -1 14 -10.2 50 50 N N/A 30.45 1031 10 16 N/A
2:55 pm 14:55 Cloudy 30 -1 14 -10.2 50 50 E 3 6 30.45 1031 10 16 N/A
3:15 pm 15:15 Cloudy 31 -0.8 12 -10.9 47 47 N N/A 30.45 1031 10 16 N/A
3:35 pm 15:35 Cloudy 30 -1 13 -10.8 48 48 E 5 7 30.42 1030 10 16 N/A
3:55 pm 15:55 Cloudy 31 -0.7 13 -10.5 48 48 N N/A 30.45 1031 10 16 N/A
4:15 pm 16:15 Cloudy 30 -1 13 -10.5 49 49 N N/A 30.45 1031 10 16 N/A
4:35 pm 16:35 Cloudy 30 -1 13 -10.5 49 49 E 3 6 30.45 1031 10 16 N/A
4:55 pm 16:55 Cloudy 30 -1 13 -10.6 49 49 E 5 7 30.45 1031 10 16 N/A
5:15 pm 17:15 Cloudy 30 -1 13 -10.3 50 50 N N/A 30.45 1031 10 16 N/A
5:35 pm 17:35 Cloudy 30 -1.1 15 -9.7 52 52 N N/A 30.45 1031 10 16 N/A
5:55 pm 17:55 Cloudy 30 -1.1 15 -9.3 54 54 N N/A 30.45 1031 10 16 N/A
6:15 pm 18:15 Cloudy 30 -1.1 16 -9.1 55 55 N N/A 30.45 1031 10 16 N/A
6:35 pm 18:35 Cloudy 30 -1.2 15 -9.2 55 55 N N/A 30.45 1031 10 16 N/A
6:55 pm 18:55 Cloudy 30 -1.2 15 -9.6 53 53 N N/A 30.45 1031 10 16 N/A
7:15 pm 19:15 Cloudy 30 -1.2 15 -9.2 55 55 N N/A 30.45 1031 10 16 N/A
7:35 pm 19:35 Cloudy 30 -1.2 16 -9.1 55 55 N N/A 30.45 1031 10 16 N/A
7:55 pm 19:55 Cloudy 30 -1.2 16 -9 56 56 N N/A 30.45 1031 10 16 N/A
8:15 pm 20:15 Cloudy 30 -1.2 16 -9 56 56 N N/A 30.45 1031 10 16 N/A
8:35 pm 20:35 Cloudy 30 -1.2 16 -8.8 57 57 ENE 3 6 30.45 1031 10 16 N/A
8:55 pm 20:55 Cloudy 30 -1.3 17 -8.5 58 58 ENE 5 7 30.45 1031 10 16 N/A
9:15 pm 21:15 Cloudy 29 -1.5 17 -8.5 59 59 N N/A 30.45 1031 10 16 N/A
9:35 pm 21:35 Cloudy 29 -1.5 15 -9.2 56 56 ENE 3 6 30.45 1031 10 16 N/A
9:55 pm 21:55 Cloudy 29 -1.5 16 -9 57 57 ESE 3 6 30.45 1031 10 16 N/A
10:15 pm 22:15 Cloudy 29 -1.5 16 -9.1 57 57 E 3 6 30.45 1031 10 16 N/A
10:35 pm 22:35 Cloudy 29 -1.5 16 -8.7 58 58 N N/A 30.45 1031 10 16 N/A
10:55 pm 22:55 Cloudy 29 -1.6 16 -8.9 58 58 N N/A 30.45 1031 10 16 N/A
11:15 pm 23:15 Cloudy 29 -1.5 17 -8.5 59 59 N N/A 30.45 1031 10 16 N/A
11:35 pm 23:35 Cloudy 29 -1.5 16 -8.9 57 57 N N/A 30.45 1031 10 16 N/A
11:55 pm 23:55 Cloudy 29 -1.6 17 -8.4 60 60 N N/A 30.45 1031 10 16 N/A

Powered by AerisWeather